Gonets-M No. 20L

operational
NORAD ID: 40063 Int'l Des: 2014-036 Owner: GONETS Country: RU
LEOCIRCULARPOLAR

Gonets-M No. 20Lについて

説明を読み込み中...

リアルタイム位置

3D地球を読み込み中...

次回通過

高度履歴

Altitude vs Time

uPlot chart will show altitude changes over time

軌道要素

1 40063U 14036C 26062.62408470 .00000036 00000-0 18626-3 0 9999
2 40063 82.5148 13.2337 0022497 15.0574 345.1171 12.42942288529132
Epoch: Mar 3, 2026 • Age: 39 hours

現在のステータス

高度 1494.0 km
速度 7.13 km/s
衛星直下点 63.52°N, 7.92°E
打ち上げ日 Jul 3, 2014
運用期間 11.6 years
タイプ other

技術仕様

分類 Payload
質量 280.00 kg
乾燥質量 280.00 kg
総質量 280.00 kg
長さ 1.60 m
直径 0.80 m
スパン 7.00 m
形状 Cyl + Ant
製造者 RESH
バスタイプ Strela-3M
フェーズステータス In Orbit
所有者/国 GONETS/RU

大規模コンステレーション

Loading constellations...